GFSGL_850_thetae_021.txt.gz
Theta_e
304 304 304 304 304 303 302 303 303 303 303 303 304 304 304 303 302 301 299 297 296 295 295 294 294 294 294 294 293 293 293 292 291 290 289 289 289 288 287 287 288 288 288
299 301 302 303 304 304 303 301 300 301 301 302 302 302 302 302 303 302 300 299 296 294 295 294 294 293 293 293 293 292 292 291 290 290 289 289 289 288 288 289 289 289 289
298 298 299 300 302 302 303 303 301 299 299 299 300 300 301 301 301 301 301 299 298 297 295 295 294 293 292 293 292 292 292 291 290 289 289 289 289 288 289 289 290 289 289
294 297 297 297 298 298 300 301 301 301 299 298 298 299 300 300 300 299 300 299 298 296 296 295 294 293 293 293 292 292 292 291 289 289 288 288 288 288 288 288 288 287 287
291 292 292 294 296 297 297 298 299 300 299 298 297 296 296 298 299 299 299 298 297 296 295 295 294 293 292 292 292 292 291 290 289 288 287 287 287 286 286 286 285 284 284
288 288 289 290 292 296 297 297 298 297 298 298 296 295 294 295 297 298 297 298 297 296 295 294 293 292 291 290 290 290 290 290 289 288 286 287 286 285 285 284 283 282 282
286 286 286 287 288 289 292 294 297 298 298 297 295 294 293 293 293 294 296 296 296 296 296 294 293 292 290 289 289 288 288 288 287 286 286 286 285 285 284 283 283 283 282
285 285 285 285 285 287 287 289 292 295 297 297 295 293 293 292 292 292 292 293 294 295 295 295 294 292 291 290 288 288 288 287 287 286 285 284 283 283 282 283 283 282 281
285 285 285 285 285 284 285 285 287 291 295 297 297 294 292 292 290 291 290 289 292 294 294 293 293 292 291 289 288 287 287 286 285 284 284 284 282 282 282 282 282 280 280
284 284 284 284 284 284 284 284 284 285 290 294 296 296 293 290 289 288 288 288 289 290 290 291 290 291 290 288 288 287 286 286 285 284 283 283 281 282 280 280 280 280 279
283 284 284 284 283 283 284 284 284 284 285 290 293 295 296 291 289 288 286 287 288 287 287 290 289 288 287 287 287 286 286 285 284 282 282 282 281 280 280 280 279 279 278
281 282 283 283 284 283 283 283 283 283 284 285 290 292 293 296 289 287 286 287 287 288 287 287 287 285 286 285 285 285 284 283 282 282 281 281 279 279 279 278 278 277 277
279 280 281 282 283 283 283 283 282 282 282 284 285 290 292 292 293 286 284 285 286 286 285 286 286 284 285 284 284 284 282 281 281 280 281 280 278 277 277 277 278 277 277
275 277 278 278 280 281 281 281 280 280 280 281 283 286 290 290 291 291 285 283 286 284 283 282 282 282 282 282 282 281 281 281 281 281 280 279 278 277 276 277 277 277 277
271 272 272 272 273 275 278 279 278 279 278 280 282 283 285 289 289 289 288 284 286 284 284 282 280 281 280 280 281 281 281 281 282 282 281 278 277 276 277 277 277 277 276
267 267 267 267 267 269 271 276 277 276 277 280 281 281 282 285 284 283 286 285 285 284 282 283 280 281 280 280 280 281 280 280 280 281 277 276 276 276 275 276 276 276 276
263 264 264 264 265 266 267 269 271 277 276 278 280 281 282 282 282 281 283 284 284 283 282 282 282 280 280 280 280 280 280 280 281 278 276 276 276 275 275 275 275 275 275
262 263 263 263 264 264 265 267 268 270 273 275 278 279 281 282 282 281 281 282 284 281 280 280 281 280 279 280 280 281 280 279 279 275 274 275 275 274 274 274 274 274 274
263 263 263 264 264 265 265 266 267 269 271 274 276 278 280 282 282 282 281 281 284 281 279 279 280 282 281 280 280 280 280 280 276 274 275 274 274 273 273 273 273 273 273
264 264 264 265 265 265 266 267 268 269 271 274 276 277 279 280 282 282 281 281 282 281 279 278 279 281 280 279 279 279 279 275 274 274 273 273 273 273 273 272 272 272 272
264 265 266 266 267 268 269 269 270 270 272 275 276 277 277 279 281 281 280 280 281 282 279 277 279 280 279 278 278 277 275 274 274 273 273 272 272 272 272 271 271 271 271
265 266 267 267 269 270 271 272 272 273 274 275 276 276 277 279 280 280 279 280 280 281 280 279 279 279 278 277 276 275 274 274 273 272 272 272 272 271 271 271 271 270 270
267 267 268 269 271 272 273 273 274 274 274 275 275 275 276 278 279 279 279 279 279 280 280 278 278 277 275 275 274 272 273 273 272 271 271 271 271 271 271 270 270 269 269
267 268 269 270 271 271 272 273 273 274 274 275 275 276 277 277 278 278 278 278 278 278 278 277 276 275 274 273 272 273 272 271 271 271 270 270 270 270 270 270 269 269 269
267 268 268 269 269 270 271 272 273 273 274 274 275 275 276 276 277 276 276 276 276 276 276 274 274 273 271 272 273 271 271 271 270 270 270 270 270 270 269 269 269 268 268
267 268 268 268 269 269 270 271 271 272 273 273 274 274 274 275 274 274 274 274 275 274 274 272 271 272 272 271 271 270 270 270 270 270 269 269 269 269 269 269 268 268 268

GFSGL_850_thetae_024.txt.gz
Theta_e
299 298 299 299 300 300 302 303 302 300 299 299 299 300 300 300 300 301 300 300 300 299 298 296 295 295 295 295 295 296 295 295 294 294 293 292 291 290 290 290 289 290 290
295 296 296 297 297 298 299 300 301 302 301 299 299 298 298 299 299 299 300 299 299 299 298 296 296 294 294 294 294 295 295 295 294 294 292 292 290 289 289 289 289 289 289
292 293 294 294 294 294 296 298 298 299 299 300 300 299 297 296 297 298 299 299 299 299 298 297 296 295 294 293 293 293 294 294 294 293 292 291 290 289 288 288 289 288 289
288 288 289 290 291 290 291 293 297 298 298 298 298 299 298 298 296 295 296 297 297 298 297 297 296 295 294 293 293 292 293 293 293 293 291 290 289 288 288 288 288 288 288
287 287 286 287 287 288 288 288 289 292 298 298 298 298 297 298 297 296 294 294 294 295 297 297 297 296 295 294 293 292 292 292 291 291 290 289 288 288 288 288 287 287 288
286 286 286 286 286 286 286 287 287 287 288 293 298 298 299 298 296 295 293 294 293 293 294 295 295 297 295 295 293 292 292 292 291 291 290 290 290 289 288 288 287 287 287
285 285 285 285 285 286 285 285 285 286 286 286 288 293 296 297 297 295 293 291 292 294 292 292 294 295 294 294 293 292 291 291 290 291 291 292 291 290 288 288 287 287 286
285 285 285 285 285 285 285 285 285 284 285 285 286 286 289 294 294 293 292 292 290 291 294 292 291 292 294 294 292 291 291 290 289 289 289 289 289 288 287 286 286 285 285
284 284 284 284 284 285 285 285 285 285 284 284 284 285 285 287 292 293 289 290 291 290 290 291 289 289 289 290 291 290 290 289 288 288 287 287 286 285 285 285 284 284 283
283 283 282 282 283 283 284 284 285 285 285 284 284 284 285 285 286 292 292 289 289 289 288 288 288 291 289 288 287 287 287 288 287 286 285 285 284 283 284 284 283 283 282
279 280 281 281 281 281 282 283 283 284 284 285 284 284 284 284 285 286 292 289 288 288 287 287 287 286 286 286 284 286 288 287 287 286 285 284 283 282 283 282 284 282 280
277 277 277 277 278 279 279 281 282 282 282 284 283 284 284 284 284 285 288 291 289 286 286 286 286 286 285 284 284 284 284 284 285 285 284 283 282 283 282 283 281 281 280
275 274 273 273 272 273 273 274 274 277 278 281 281 281 283 284 284 284 285 289 289 286 286 286 286 286 285 283 284 284 283 282 284 284 283 282 283 282 282 281 279 279 278
270 270 270 269 269 269 269 269 270 271 273 275 277 279 280 281 283 283 284 286 288 287 285 286 286 285 285 283 283 283 282 282 283 283 282 282 282 280 282 279 280 278 277
266 266 265 265 265 266 266 267 268 269 270 272 273 275 277 279 281 281 282 284 286 286 284 285 284 283 284 282 282 283 281 281 280 280 281 281 280 282 279 278 278 276 276
262 262 263 263 263 263 264 264 266 267 269 271 273 274 276 278 280 281 282 281 283 284 283 283 282 282 284 282 282 282 280 279 279 279 280 280 281 280 279 278 276 276 275
262 262 262 262 262 262 263 263 264 265 267 269 271 273 275 277 280 282 282 282 283 283 283 282 282 281 283 282 282 282 279 280 280 279 280 282 281 279 278 276 276 275 275
263 263 263 262 262 262 263 263 263 264 265 266 268 270 273 278 280 282 283 283 282 283 284 281 281 281 282 281 281 281 280 281 280 281 281 281 280 279 278 277 274 274 274
264 263 263 264 264 263 263 264 264 264 265 266 267 270 273 277 279 280 282 283 282 282 284 281 281 281 281 281 281 280 280 280 281 280 279 279 279 278 275 274 274 274 273
263 264 264 265 265 265 265 265 265 266 266 267 268 270 274 276 277 279 282 283 282 282 283 281 280 280 281 281 279 279 279 280 280 279 278 278 276 274 275 274 273 273 272
264 264 265 266 266 266 267 267 268 268 268 269 270 273 275 276 277 279 281 283 282 281 282 280 279 280 281 281 280 278 279 279 278 278 277 275 275 274 272 272 272 272 271
264 266 266 267 267 268 269 270 271 272 272 272 274 274 275 276 277 279 281 281 281 281 280 280 280 280 280 280 279 277 278 277 277 276 274 274 273 273 272 272 271 271 271
266 266 267 268 268 269 270 271 272 273 273 274 274 274 275 276 277 279 280 281 280 280 279 280 280 279 279 278 277 276 276 276 276 275 275 274 273 271 271 271 271 270 270
267 267 267 268 269 269 270 271 272 272 273 273 274 274 275 276 277 278 279 279 278 278 277 277 277 278 277 276 275 274 275 275 274 274 273 272 271 271 270 270 270 270 270
267 267 268 268 269 269 270 270 271 271 272 272 272 273 274 275 276 276 276 276 276 276 275 276 276 275 274 274 274 274 274 274 274 273 271 271 270 270 270 270 270 269 269
268 267 268 268 269 270 270 270 270 271 271 271 271 272 272 273 274 274 274 274 274 274 274 273 273 273 273 273 273 273 273 272 271 270 270 270 270 270 270 269 269 269 269

GFSGL_850_thetae_030.txt.gz
Theta_e
288 288 288 288 289 290 292 292 293 293 293 293 294 297 298 298 297 296 296 296 296 296 296 295 296 296 297 297 296 296 295 295 296 297 297 297 297 297 297 296 294 293 292
287 287 287 287 287 287 287 288 288 289 289 289 290 290 290 293 297 297 295 295 295 295 295 295 295 294 295 295 296 296 296 295 295 295 296 296 296 297 296 296 295 294 293
287 287 287 286 286 286 286 286 286 286 286 286 287 288 289 288 288 290 297 296 295 294 293 294 294 293 294 294 294 295 295 295 295 294 295 296 296 296 296 295 294 292 292
287 287 287 287 286 286 286 286 286 286 286 286 286 286 286 287 287 287 287 288 294 297 294 293 293 293 293 293 293 293 293 294 295 294 293 294 295 295 295 295 294 292 292
287 287 287 287 286 286 286 286 286 286 286 286 286 286 286 285 286 286 286 286 286 287 292 296 293 292 292 292 292 292 292 292 292 293 293 292 293 293 293 294 294 293 292
288 288 287 287 286 286 286 286 286 286 286 286 286 286 286 286 285 285 285 285 285 285 286 287 292 296 295 292 291 291 291 291 291 291 292 293 292 292 293 293 293 292 290
286 287 287 286 286 285 285 285 285 285 285 285 285 285 285 285 286 286 285 285 285 285 285 285 286 287 293 295 294 290 290 290 290 291 291 292 292 293 292 292 292 292 293
285 284 283 282 282 282 283 283 284 283 283 283 284 284 284 284 285 285 285 285 285 285 285 285 285 285 285 289 292 292 292 289 289 289 289 290 291 290 291 293 293 293 291
282 281 280 280 279 279 279 279 279 279 280 281 282 282 282 283 283 283 283 283 284 285 285 285 285 285 285 285 288 290 291 292 292 288 289 289 289 289 290 289 289 289 288
280 279 278 277 276 276 276 276 276 277 277 277 277 278 279 280 282 281 280 279 280 282 284 285 285 285 285 284 285 288 288 291 290 289 287 288 288 288 289 289 288 289 288
278 278 278 277 276 274 273 272 271 271 272 272 273 273 273 274 276 278 277 277 279 280 282 283 284 284 285 284 284 287 290 290 289 287 287 287 288 288 288 288 288 288 288
277 277 276 276 274 273 271 270 268 267 267 268 269 269 270 270 271 273 275 276 278 280 281 282 283 283 284 284 286 287 288 288 287 286 286 286 286 287 287 287 286 286 287
276 276 275 273 271 269 268 267 266 266 265 265 266 267 267 268 269 270 272 274 276 278 280 282 283 284 284 285 285 286 288 287 287 286 285 286 286 286 285 285 285 285 285
275 274 272 269 268 267 266 266 265 265 264 264 264 265 266 266 267 267 268 270 273 276 279 281 283 283 283 283 283 285 287 287 287 286 285 285 285 284 284 284 283 284 283
273 272 270 267 266 265 265 265 264 265 265 266 267 268 268 268 269 269 270 271 271 273 275 278 281 280 281 282 283 285 286 286 286 286 285 285 284 283 283 282 282 281 281
271 270 267 265 265 265 264 264 266 265 266 267 268 269 269 269 270 271 271 272 272 273 274 275 277 280 281 282 282 284 285 286 286 286 285 284 284 282 282 281 281 281 280
270 267 266 266 265 264 264 264 264 266 266 267 267 268 268 269 270 270 271 272 272 274 274 276 276 278 280 282 282 283 284 285 285 285 285 284 283 282 282 280 281 280 279
269 268 267 266 266 265 264 264 265 265 265 267 270 268 268 269 270 271 271 272 272 272 273 275 276 278 279 282 282 282 283 283 283 284 284 283 283 283 281 280 280 279 278
268 268 267 267 266 265 265 265 265 266 266 267 268 270 272 272 270 271 272 273 273 273 273 274 276 278 279 283 282 282 282 283 283 283 283 283 282 281 280 279 279 278 277
270 269 268 267 267 267 266 265 265 266 266 268 268 268 270 272 273 273 275 276 276 277 277 278 279 281 283 283 283 282 282 282 283 282 282 281 280 279 279 278 278 277 276
269 270 270 268 268 268 267 266 266 266 266 266 267 269 269 270 272 273 274 275 276 278 279 279 280 281 283 282 282 282 282 282 281 280 280 279 279 278 278 278 277 275 276
269 270 270 269 269 268 268 267 266 265 265 266 267 269 268 270 270 272 274 275 276 278 280 281 282 282 282 282 282 282 282 281 280 279 278 278 278 278 277 276 275 275 275
270 270 270 270 269 269 269 268 267 266 266 266 267 268 269 270 270 271 272 274 276 277 278 279 280 280 280 280 280 281 281 279 279 278 277 277 277 276 275 275 275 275 275
269 269 270 270 269 269 269 268 268 267 267 267 267 268 269 269 270 270 271 272 273 274 275 275 276 276 277 277 278 277 277 277 276 276 276 276 275 275 275 274 274 274 274
267 268 269 269 269 269 269 269 268 269 268 268 268 269 269 270 270 270 271 271 272 273 273 274 274 275 275 275 275 275 275 274 274 274 274 274 275 274 274 274 273 273 272
268 268 267 267 268 268 268 268 268 268 269 269 269 269 269 269 269 270 270 270 271 271 272 272 272 273 273 273 273 273 273 273 273 273 274 274 274 273 273 272 272 271 271

GFSGL_850_thetae_033.txt.gz
Theta_e
288 288 288 288 288 288 287 288 288 288 288 288 288 287 287 288 289 292 295 297 296 296 296 295 295 296 296 296 297 296 296 296 296 296 296 296 296 297 297 298 298 298 296
287 287 287 287 287 287 287 287 286 286 287 287 287 287 287 286 286 286 287 288 289 294 297 296 295 295 294 294 295 295 296 295 295 295 295 295 296 296 296 297 297 297 297
288 288 288 287 287 287 286 286 286 286 286 286 286 286 287 287 286 286 286 286 286 287 288 290 296 295 295 293 293 294 294 294 294 294 294 295 295 296 296 296 296 297 296
288 288 288 288 288 287 287 287 286 286 286 286 286 286 286 286 286 286 286 286 286 286 285 286 287 289 295 295 294 292 292 293 293 293 294 294 294 294 295 295 295 296 296
288 288 288 288 288 287 287 286 286 285 285 285 285 285 285 285 285 285 285 285 286 286 286 285 285 285 286 288 294 294 292 291 292 292 293 292 293 293 293 294 294 295 295
288 288 288 287 287 286 285 285 285 285 284 284 284 284 284 284 284 284 284 283 284 285 285 286 285 285 285 285 285 289 293 291 290 291 291 291 292 292 292 293 293 294 293
287 287 286 285 284 284 283 283 283 282 283 283 283 282 282 283 283 282 282 281 282 283 283 284 285 285 285 285 285 285 285 291 291 290 290 290 291 291 291 291 292 292 293
286 285 282 281 281 280 280 280 280 279 279 280 280 281 281 282 282 281 279 279 279 280 281 281 282 283 284 285 285 285 285 285 286 292 291 290 290 290 290 290 291 292 292
283 282 281 280 279 278 278 278 277 277 277 277 277 276 276 277 277 277 277 277 276 277 278 279 280 280 282 283 284 284 285 285 285 285 290 292 291 289 289 289 289 288 288
282 281 280 279 278 277 277 276 275 274 274 273 274 273 272 272 272 273 273 274 274 274 275 276 277 279 281 282 284 283 284 285 284 284 285 288 292 291 289 289 289 288 288
280 280 279 278 277 277 275 274 272 271 270 269 269 269 269 269 269 269 271 272 273 273 274 275 276 278 280 282 284 284 284 284 284 285 285 286 289 290 290 289 289 287 287
279 278 278 277 276 275 273 272 270 269 268 268 268 268 268 268 267 268 269 270 271 272 273 273 274 276 278 281 282 284 285 285 286 286 286 286 287 288 289 289 289 289 287
278 277 277 276 275 273 272 270 269 268 267 266 265 265 266 267 268 268 268 268 269 270 270 271 273 274 275 278 282 283 284 285 286 286 287 287 287 288 287 287 287 288 288
277 276 276 275 273 272 270 269 267 268 266 265 265 266 267 267 268 268 269 269 270 271 272 272 272 272 274 275 278 282 284 285 285 286 286 287 287 286 286 286 286 287 286
276 276 275 273 272 270 268 268 267 268 265 266 267 268 268 269 269 270 272 272 272 272 273 273 273 273 274 274 279 282 283 283 283 283 286 287 287 286 286 285 285 285 285
276 275 274 273 271 268 267 267 270 268 266 267 268 269 269 269 270 271 272 273 273 273 273 273 273 273 273 274 275 280 280 281 281 283 285 286 286 286 285 284 284 284 284
274 274 273 272 270 268 268 267 266 271 270 268 267 268 269 270 271 272 273 273 274 274 274 273 273 272 273 274 275 276 280 281 282 283 284 285 286 286 285 284 283 283 282
273 273 272 272 270 268 268 268 268 266 265 269 272 267 269 269 270 272 273 274 273 274 273 273 273 272 273 274 276 278 278 280 281 282 284 285 285 285 284 283 282 282 281
273 273 272 272 270 268 269 269 268 267 266 266 266 269 268 268 268 270 269 271 272 273 273 273 273 273 273 273 276 276 278 281 282 282 282 283 284 284 283 282 282 282 281
272 272 271 271 270 269 269 269 269 268 266 266 266 266 267 268 269 270 271 272 272 273 273 273 276 276 276 276 277 277 278 280 282 282 282 282 283 283 283 281 280 280 279
272 272 271 271 270 269 269 269 269 267 267 267 267 267 266 267 268 268 270 271 272 272 274 275 278 277 278 280 281 281 281 282 282 282 282 282 282 282 281 280 279 278 278
271 271 271 271 270 270 270 270 269 268 267 268 268 268 266 268 268 269 270 271 272 273 274 275 276 277 279 280 281 282 282 282 282 281 281 281 280 280 279 278 277 277 277
269 269 270 270 270 269 270 269 269 269 268 268 268 268 269 269 268 269 269 270 271 272 273 274 275 276 277 277 278 278 279 280 280 280 279 279 278 278 278 277 277 276 276
268 268 269 269 269 269 269 269 269 269 269 268 268 268 268 269 269 269 269 270 270 271 272 273 273 273 274 275 276 276 276 277 277 277 277 277 277 276 276 276 275 275 274
268 269 268 267 268 268 269 269 269 269 268 268 268 268 268 268 269 269 269 269 270 270 271 271 272 272 273 273 273 274 274 274 274 274 275 275 275 275 275 274 274 273 273
268 268 268 268 268 267 267 268 268 268 268 268 268 268 268 269 269 269 269 269 270 270 270 270 271 271 272 271 271 272 272 272 272 273 273 273 273 273 273 273 272 272 272